Home   Weather   Washington Monument   Past weeks
Flag for USA

Past Weather in Washington Monument, Maryland, USA — Yesterday and Last 2 Weeks

Now
38 °F

Light rain. Fog.


Feels Like: 31 °F
Forecast: 60 / 39 °F
Wind: 10 mph from Northeast

Location: Baltimore-Washington International Airport

Current Time: Feb 23, 2019 at 7:02:44 pm

Latest Report: Feb 23, 2019 at 5:57 pm


Visibility: 2 mi

Pressure: 30.24 "Hg

Humidity: 97%

Dew Point: 37 °F

Location of Washington MonumentLocation

Past Weather in Washington Monument — Graph

°F

Washington Monument Temperature Yesterday

Maximum temperature yesterday: 49 °F (at 12:54 am)
Minimum temperature yesterday: 37 °F (at 11:54 pm)
Average temperature yesterday: 45 °F

High & Low Weather Summary for the Past Weeks

 TemperatureHumidityPressure
High65 °F (Feb 15, 1:54 pm)100% (Feb 11, 1:32 pm)30.77 "Hg (Feb 11, 1:32 pm)
Low18 °F (Feb 10, 6:54 am)22% (Feb 15, 11:54 pm)29.62 "Hg (Feb 15, 2:54 pm)
Average37 °F68%30.19 "Hg
* Reported Feb 8 5:54 pm — Feb 23 5:57 pm, Washington Monument. Weather by CustomWeather, © 2019

Note: Actual official high and low records may vary slightly from our data, if they occured in-between our weather recording intervals... More about our weather records

Advertising

Washington Monument Weather History for the Previous 24 Hours

Scroll right to see more
 ConditionsComfort  
Time TempWeatherWind HumidityBarometerVisibility
5:57 pm
Sat, Feb 23
38 °FLight rain. Fog.10 mph97%30.24 "Hg2 mi
5:40 pm38 °FLight rain. Fog.13 mph93%30.23 "Hg2 mi
5:21 pm38 °FMostly cloudy.7 mph90%30.26 "Hg8 mi
4:54 pm38 °FOvercast.9 mph90%30.24 "Hg7 mi
3:54 pm38 °FFog.8 mph86%30.29 "Hg6 mi
2:54 pm38 °FLight rain. Mostly cloudy.7 mph79%30.33 "Hg5 mi
1:54 pm38 °FLight rain. Cloudy.7 mph76%30.34 "Hg8 mi
12:54 pm39 °FLight rain. Mostly cloudy.6 mph70%30.37 "Hg10 mi
11:54 am39 °FMostly cloudy.6 mph62%30.42 "Hg10 mi
10:54 am38 °FMostly cloudy.5 mph65%30.45 "Hg10 mi
9:54 am38 °FMostly cloudy.7 mph63%30.45 "Hg10 mi
8:54 am38 °FMostly cloudy.10 mph63%30.46 "Hg10 mi
7:54 am37 °FMostly cloudy.10 mph65%30.46 "Hg10 mi
6:54 am36 °FMore clouds than sun.8 mph70%30.45 "Hg10 mi
5:54 am36 °FMostly cloudy.9 mph73%30.43 "Hg10 mi
4:54 am37 °FMostly cloudy.9 mph70%30.43 "Hg10 mi
3:54 am38 °FOvercast.8 mph65%30.42 "Hg10 mi
2:54 am40 °FMostly cloudy.9 mph60%30.43 "Hg10 mi
1:54 am38 °FOvercast.5 mph68%30.45 "Hg10 mi
12:54 am36 °FClear.No wind75%30.45 "Hg10 mi
11:54 pm
Fri, Feb 22
37 °FOvercast.No wind73%30.45 "Hg10 mi
10:54 pm40 °FOvercast.No wind60%30.44 "Hg10 mi
9:54 pm39 °FOvercast.No wind65%30.45 "Hg10 mi
8:54 pm41 °FOvercast.No wind58%30.44 "Hg10 mi
7:54 pm43 °FMostly cloudy.3 mph49%30.44 "Hg10 mi
Weather by CustomWeather, © 2019

See weather overview